Theta_e
310 311 313 312 308 309 310 310 312 310 309 310 309 310 308 307 307 305 304 304 305 308 312 317 324 326 328 331 334 335 335 334 334 333 331 330 330 330 329 329 329 329 329 329
311 312 311 311 309 310 310 310 310 310 310 310 309 309 308 307 306 305 305 304 306 305 305 307 312 319 326 329 331 333 334 334 334 333 332 330 329 329 329 329 328 329 329 330
311 311 310 310 309 309 308 309 308 311 309 309 308 308 310 309 306 307 305 304 305 304 305 305 307 310 313 317 323 328 332 333 334 334 333 330 329 328 329 329 329 329 330 329
310 310 310 310 310 310 309 308 308 309 307 308 306 308 303 307 307 306 306 304 304 303 305 306 308 310 310 310 311 313 321 332 333 333 333 331 327 327 327 327 328 328 327 327
311 309 310 311 311 308 310 309 310 309 307 307 308 304 303 305 307 306 305 303 303 304 305 306 309 311 312 312 312 310 310 320 333 334 333 330 329 327 326 326 326 326 327 326
309 307 308 310 308 308 308 308 306 306 306 308 305 305 304 305 306 308 306 304 303 304 306 307 309 311 312 315 315 310 308 312 324 333 333 329 330 327 326 325 325 326 325 323
307 308 307 308 309 309 309 308 308 307 309 310 305 303 306 304 304 305 306 305 305 305 306 306 307 309 312 316 313 309 314 319 325 331 333 328 328 325 324 324 323 321 317 316
309 309 308 307 309 309 306 308 308 307 308 306 305 307 307 304 304 304 304 305 305 305 306 306 307 308 310 315 315 316 319 322 327 331 328 326 325 322 321 319 318 316 316 313
308 309 308 307 308 308 308 308 306 307 298 308 305 304 304 306 306 308 307 307 306 304 305 305 306 307 308 312 315 316 319 320 322 323 322 322 321 319 318 315 315 311 304 302
307 310 309 308 307 308 308 306 310 307 309 309 307 306 304 306 305 307 307 307 305 304 304 303 304 305 306 308 310 312 315 316 317 319 319 318 317 316 313 308 303 301 298 297
308 310 309 308 308 308 307 307 306 307 308 310 306 306 302 305 306 307 307 306 306 305 304 303 302 304 304 305 306 307 309 310 311 313 312 311 307 304 302 300 297 296 295 295
309 309 310 308 308 307 307 307 306 309 308 306 308 307 305 303 304 305 307 307 305 305 303 301 301 302 302 303 303 304 304 305 304 304 303 302 300 298 297 296 295 294 294 294
308 310 310 311 308 308 308 307 306 306 306 309 308 307 303 304 305 304 307 306 306 304 302 300 300 300 300 301 301 301 301 301 301 300 299 297 296 296 295 294 294 294 294 293
310 310 310 310 309 308 309 308 306 307 308 306 307 306 305 306 306 306 306 306 306 305 303 302 301 300 299 300 300 300 299 299 298 297 296 295 295 294 294 293 293 293 293 293
309 308 309 308 307 308 308 309 308 307 308 308 308 305 305 303 305 306 306 306 307 306 304 303 302 300 299 298 299 298 298 297 296 295 295 294 293 293 293 293 293 293 292 292
307 305 307 307 307 308 309 307 308 308 308 306 306 305 304 303 304 306 306 308 308 307 306 304 302 301 299 297 297 297 296 295 295 295 294 293 292 292 292 292 292 292 292 291
308 308 307 310 308 310 310 309 307 308 307 307 308 308 303 304 305 306 306 308 309 308 306 304 303 301 299 297 297 295 295 295 294 294 293 292 292 292 292 291 291 291 291 290
306 307 306 309 308 315 312 307 306 307 307 307 307 306 305 304 304 305 307 307 308 308 307 305 304 302 300 297 296 295 295 294 293 292 292 292 292 292 291 291 291 290 290 290
304 304 302 305 293 306 307 305 306 306 309 306 307 307 304 304 304 305 305 306 307 307 307 306 304 303 299 296 295 295 294 293 292 291 291 292 291 291 291 291 290 290 289 288
306 304 306 289 301 306 307 304 302 305 310 308 306 307 304 303 306 308 303 305 305 306 307 306 304 301 297 295 295 294 291 291 291 291 291 291 291 291 290 290 289 288 287 287
308 304 309 295 296 301 301 302 303 309 308 300 304 306 303 305 307 304 305 302 304 304 305 305 301 298 296 294 294 292 291 290 291 292 291 290 290 290 289 288 287 286 286 285
309 309 307 301 303 309 301 302 307 305 298 300 304 306 304 301 303 304 303 301 300 300 301 301 298 296 294 294 293 291 290 291 292 291 290 290 289 288 288 286 285 285 285 284
311 309 310 309 308 301 299 302 299 298 298 299 300 301 302 303 303 302 301 299 298 297 297 297 296 292 292 292 293 291 290 291 291 290 289 288 287 286 285 285 284 284 284 283
306 304 307 309 306 303 298 297 298 298 299 298 298 298 300 302 301 300 296 295 294 293 293 294 292 291 290 291 291 292 292 291 290 289 288 286 286 284 283 283 283 283 283 283
303 306 306 305 305 301 300 299 299 297 296 297 296 297 298 299 299 297 294 290 290 291 292 292 292 291 290 290 291 292 291 290 289 287 286 284 283 282 283 282 282 282 281 281
299 304 308 308 304 305 303 299 298 297 297 295 295 296 296 296 296 294 290 291 290 289 290 291 291 289 287 289 290 290 290 289 289 287 285 282 282 282 281 280 280 280 280 278
Wind_Speed
4 6 20 19 4 5 6 5 6 3 3 5 8 5 9 7 5 8 9 9 9 10 9 12 19 27 26 31 36 36 35 33 31 29 25 22 23 22 20 18 17 16 16 16
4 18 9 9 8 5 5 7 5 1 1 3 4 9 5 5 6 8 10 9 11 6 6 11 15 17 22 26 29 32 35 34 34 32 29 24 22 21 19 17 16 15 15 14
13 9 8 8 6 8 5 6 5 4 4 2 5 6 4 8 5 4 6 6 5 11 10 8 15 16 17 17 20 25 30 34 35 35 29 19 15 17 17 18 16 16 15 13
5 6 12 7 16 13 9 7 8 7 5 5 4 5 6 8 9 7 9 8 9 9 6 5 11 13 14 16 17 17 19 29 34 35 31 25 18 16 16 15 13 10 9 8
7 9 7 14 15 9 8 7 9 7 4 5 3 2 7 2 8 9 13 10 9 9 9 8 11 10 10 11 14 17 19 20 31 34 30 23 23 19 14 11 8 8 8 8
6 2 8 9 4 7 8 7 6 5 3 3 6 7 5 6 9 9 4 10 10 8 7 8 10 10 8 8 10 14 20 21 23 33 32 23 22 17 14 13 12 11 10 9
3 3 1 3 6 2 5 9 2 0 1 6 2 3 8 5 8 7 12 11 8 8 8 8 9 10 9 7 9 12 17 20 24 28 30 25 22 18 17 18 17 14 9 6
10 6 7 5 6 7 6 9 6 7 4 3 3 6 6 7 5 7 8 10 9 9 7 8 11 12 12 11 12 16 20 22 25 28 27 25 20 19 16 17 17 14 12 9
7 4 2 2 2 8 6 5 6 7 3 3 5 5 9 4 7 4 7 11 12 9 8 8 11 14 14 14 15 20 24 26 28 30 28 27 23 22 21 20 18 17 16 16
6 3 1 1 2 1 7 8 3 2 5 4 4 4 5 7 12 9 9 13 9 8 8 7 12 16 16 17 19 21 25 28 29 30 29 28 26 24 23 22 22 20 18 15
5 4 1 3 6 9 4 4 2 5 4 5 1 6 8 13 17 14 11 10 12 11 10 9 13 18 19 20 21 23 26 28 29 30 30 30 29 27 26 25 22 20 17 14
3 5 4 5 1 2 1 7 6 7 7 1 3 6 3 7 7 9 10 11 8 11 10 9 17 21 22 23 24 26 27 29 30 32 33 33 31 29 27 24 20 17 15 13
8 2 3 4 3 2 5 4 5 5 3 8 5 6 1 2 5 6 11 10 11 11 9 8 13 16 21 25 26 26 28 30 32 33 34 32 30 27 24 23 20 16 14 12
8 4 8 10 6 9 7 8 6 5 2 4 7 10 6 5 6 5 8 12 12 12 14 13 11 16 20 25 28 29 30 32 33 34 33 31 28 25 23 20 18 16 13 10
8 7 5 1 5 5 3 10 15 13 22 11 24 10 12 8 8 7 6 8 11 14 14 15 14 16 22 25 28 30 32 34 34 34 32 30 27 24 21 19 17 14 11 9
1 2 5 3 5 5 2 8 15 20 15 15 14 13 8 6 6 8 12 15 16 17 19 16 15 22 24 26 29 34 36 36 34 33 31 28 26 23 20 18 15 12 10 7
9 6 4 13 3 6 3 14 13 14 18 20 17 24 7 7 9 11 12 17 20 19 20 20 22 28 30 32 36 35 39 38 36 34 31 28 25 22 18 17 14 11 8 6
6 7 3 3 2 5 14 5 11 16 9 21 17 5 9 10 11 11 12 18 19 18 19 18 24 28 32 33 35 36 40 39 36 33 31 27 24 21 18 15 12 9 7 5
3 5 2 5 4 5 9 9 9 10 20 12 20 17 6 5 4 7 13 15 18 20 20 31 37 33 32 35 37 42 41 40 37 35 32 28 24 21 18 14 11 9 6 4
3 3 4 3 7 11 9 8 8 8 18 13 15 17 10 8 7 17 10 15 19 23 23 25 31 32 35 38 46 43 38 41 39 37 33 27 23 19 16 13 10 7 5 2
3 2 12 3 4 9 7 4 4 9 11 2 9 11 8 10 14 2 2 8 17 17 24 29 34 36 36 40 44 35 35 35 39 35 30 26 21 17 14 12 10 7 4 3
9 8 5 3 2 16 6 4 15 5 2 2 2 1 4 8 5 2 4 5 8 11 22 32 29 29 36 46 46 37 36 39 38 34 30 26 21 17 14 11 8 6 5 3
6 6 8 12 8 2 2 2 2 1 3 1 2 3 4 4 3 2 2 2 3 9 18 25 27 27 30 41 43 38 38 41 39 33 29 24 19 16 13 10 8 6 4 3
3 2 3 3 3 4 5 1 3 2 1 0 2 3 3 3 3 3 2 4 5 10 15 21 25 25 26 32 34 35 44 41 37 33 27 23 20 17 13 10 7 6 4 1
2 5 4 4 2 3 3 5 3 4 2 3 3 2 4 3 3 3 3 2 3 10 15 21 21 23 26 32 36 39 44 41 36 30 25 21 19 16 12 10 8 7 4 2
4 4 3 2 2 3 1 3 4 4 4 5 3 4 3 2 4 2 2 6 11 13 18 20 21 23 27 34 37 38 39 36 33 28 25 24 20 15 13 11 9 5 5 5
Wind_Direction
206 183 205 192 164 182 158 157 183 222 196 142 206 229 215 202 202 210 207 207 208 211 209 192 200 208 203 202 204 205 204 206 203 200 198 206 216 219 221 223 229 233 237 243
223 218 191 162 191 204 156 172 199 15 101 145 157 244 245 211 226 205 198 202 204 184 173 167 167 170 191 196 199 203 207 207 206 204 203 203 211 222 225 226 225 231 234 238
206 205 149 169 187 192 216 166 180 183 133 56 116 295 236 251 244 218 237 214 193 187 181 180 171 171 177 185 196 202 208 209 206 206 203 198 207 223 223 229 234 235 239 245
195 213 179 184 202 195 213 195 168 146 134 191 168 255 242 227 229 215 215 204 203 191 185 179 180 173 183 196 201 201 198 208 207 204 203 194 200 216 224 234 234 225 235 246
197 168 173 203 203 172 217 151 159 161 152 124 210 136 263 140 235 233 218 205 205 194 180 174 184 182 195 208 218 214 206 198 206 205 210 207 200 202 213 211 202 183 187 198
184 176 178 185 126 185 145 96 54 61 99 245 204 167 257 193 209 221 193 206 199 186 163 161 172 176 188 206 220 217 207 199 196 203 205 214 193 187 182 170 162 156 148 135
151 191 276 137 117 106 183 148 118 203 213 220 123 157 244 250 238 223 209 196 177 171 165 163 165 166 170 182 195 191 182 177 183 191 197 201 180 177 176 164 162 154 146 125
166 200 173 167 195 167 197 170 149 182 193 206 105 226 245 231 256 246 224 174 155 167 167 172 173 171 166 167 170 166 164 157 167 176 174 172 184 171 178 161 155 150 155 155
162 214 3 125 131 160 198 192 154 98 14 67 207 288 302 252 273 199 174 162 174 173 169 168 170 170 164 164 167 161 153 148 149 151 154 156 162 161 164 152 150 148 140 133
191 127 340 140 166 178 179 154 107 9 137 230 269 257 224 219 227 210 190 189 168 164 161 153 158 163 162 157 155 157 154 149 147 147 150 149 150 155 153 148 141 137 130 127
134 104 246 125 210 175 144 180 145 123 158 177 196 256 216 208 213 205 195 179 173 167 163 162 156 163 159 156 154 151 150 148 147 147 145 143 142 144 143 140 136 135 132 127
165 116 156 191 212 256 275 200 160 197 214 255 163 263 209 224 226 184 187 177 171 167 162 158 159 162 164 161 157 154 150 147 145 144 142 141 143 144 143 139 137 134 129 121
180 159 94 35 354 213 211 200 182 108 78 201 160 250 35 288 277 216 172 171 171 161 150 150 156 167 168 166 163 159 155 150 149 148 144 144 144 145 143 140 139 136 132 120
129 155 167 192 194 138 197 186 182 155 155 186 229 240 267 228 221 197 184 178 168 166 170 171 173 174 172 172 169 165 160 157 157 153 150 148 149 149 146 143 140 137 131 122
164 200 162 196 153 142 217 196 184 194 219 191 239 215 226 223 207 203 168 153 165 178 183 184 179 174 176 176 174 171 168 166 163 158 155 153 151 151 149 145 140 135 127 112
200 234 138 210 170 151 194 215 195 210 222 241 252 266 202 192 129 167 187 179 188 194 191 187 183 182 182 178 176 175 174 172 169 163 160 157 157 155 151 145 140 135 124 111
159 129 116 225 130 103 337 219 204 224 220 219 227 239 173 187 196 194 186 193 197 197 193 190 190 187 185 183 180 177 177 175 173 168 164 162 162 158 153 150 146 139 125 102
141 122 104 159 92 214 248 183 204 216 221 228 247 229 204 199 210 206 198 199 207 200 199 198 192 190 188 182 180 178 179 176 174 170 167 166 165 162 158 157 149 134 119 103
17 122 116 142 189 305 270 214 190 180 252 223 237 237 200 193 116 258 208 207 204 200 201 200 195 188 177 176 177 180 178 177 176 174 172 172 171 167 163 157 145 138 132 126
49 62 150 91 160 209 274 183 158 103 260 228 223 236 197 148 219 244 206 206 212 209 205 190 184 176 172 176 180 175 174 177 179 179 176 174 172 171 163 156 151 149 145 133
125 80 202 159 216 274 230 183 146 145 249 251 202 225 164 197 227 288 269 220 216 200 187 181 171 176 177 172 173 170 173 180 183 177 175 174 173 171 167 164 163 157 165 172
163 159 190 120 181 256 155 58 174 217 34 38 62 97 212 245 281 339 293 254 180 166 162 167 164 168 172 176 173 172 178 183 180 177 176 175 174 174 171 173 164 175 177 175
196 192 193 185 211 211 196 41 72 102 126 113 337 334 304 259 246 187 245 167 163 159 157 164 163 158 169 176 177 171 177 180 177 176 175 176 175 176 176 174 174 176 185 203
251 297 167 117 207 157 190 196 190 175 108 191 236 257 226 259 280 272 175 167 146 143 152 158 153 160 164 173 176 175 178 177 175 175 176 177 179 177 174 180 182 186 198 230
180 134 154 297 288 317 169 205 194 186 190 271 299 292 301 283 241 218 208 171 135 148 155 161 165 166 167 169 174 180 176 176 175 176 177 179 184 179 178 186 190 191 199 211
186 166 170 224 167 92 291 281 168 184 242 248 254 299 301 281 262 166 185 179 167 164 169 167 168 163 164 169 173 175 176 177 175 177 182 188 185 181 185 187 183 187 180 189